Location: Syracuse
(43.0480°N, 76.1480°W)
Time: 18:22:28
(UTC-04:00)

Daily predictions for brighter satellites

Satellite Brightness Start Highest point End
(mag) Time Altitude Azimuth Time Altitude Azimuth Time Altitude Azimuth
Cosmos 2298 Rocket 4.2 19:14:08 10° NNW 19:19:31 87° WSW 19:24:51 10° SSE
Cosmos 1825 Rocket 3.8 19:15:58 10° N 19:20:24 80° W 19:24:51 10° S
USA 267 4.5 19:17:41 10° NE 19:23:38 38° NNW 19:29:34 10° W
BREEZE-M DEB (TANK) 3.8 19:22:21 10° WNW 19:25:27 43° N 19:34:19 10° ENE
Cosmos 1943 Rocket 3.4 19:29:21 10° NW 19:34:40 46° WSW 19:39:59 10° S
Cosmos 1340 Rocket 3.5 19:30:46 10° NNW 19:34:48 62° W 19:38:50 10° S
ATLAS CENTAUR R/B 3.8 19:23:08 10° NW 19:39:44 89° NE 19:45:00 10° SE
CZ-2D R/B 4.5 19:38:44 10° ESE 19:41:45 23° ENE 19:44:47 10° NNE
Cosmos 304 Rocket 3.7 19:38:19 10° SSW 19:43:05 74° ESE 19:47:53 10° NNE
COSMO-SKYMED 1 4.0 19:44:23 10° N 19:48:31 43° WNW 19:52:36 10° SW
Meteor 1-24 Rocket 3.8 19:44:41 10° N 19:50:39 65° ENE 19:56:22 10° SSE
Spot 2 Rocket 4.5 19:47:50 11° ESE 19:51:48 27° ENE 19:56:01 10° N
BREEZE M DEB (TANK) 3.6 19:43:52 10° W 19:52:04 48° NNW 19:54:56 10° NE
Thor Agena Rocket 3.5 19:47:13 10° NNE 19:52:30 82° ESE 19:57:40 10° SSW
ISS -2.6 19:53:49 10° SSW 19:56:33 25° SE 19:57:34 21° ESE
Cosmos 2084 4.4 19:52:57 10° WSW 19:56:50 44° NW 20:00:35 10° NNE
ALOS 3.1 19:57:44 10° S 20:02:18 54° W 20:06:54 10° NNW
BREEZE M DEB (TANK) 3.3 19:56:17 10° WNW 20:04:14 79° SSW 20:06:19 21° SE
SJ 16-02 1.8 20:02:31 10° N 20:06:41 40° ENE 20:09:12 21° SE
Cosmos 1656 Rocket 4.3 20:01:26 10° NNW 20:06:58 58° WSW 20:12:24 10° S
SJ-6B 2.7 20:04:17 10° SSE 20:08:18 86° ENE 20:12:13 10° NNW
Cosmos 1953 3.2 20:11:48 24° ESE 20:12:57 28° E 20:16:27 10° NNE
H-2A R/B 2.9 20:09:44 10° S 20:13:27 71° WSW 20:17:14 10° NNW
Cosmos 2154 Rocket 4.1 20:08:35 10° SSE 20:14:33 51° E 20:20:35 10° NNE
Resurs 1-3 4.0 20:11:58 20° SE 20:14:41 43° ENE 20:18:51 10° N
Cosmos 2074 Rocket 4.0 20:09:14 10° S 20:15:27 84° W 20:21:41 10° N
Cosmos 372 Rocket 3.9 20:11:04 10° NNW 20:16:20 71° ENE 20:20:59 13° SSE
Cosmos 1125 Rocket 3.5 20:11:12 10° NNW 20:16:32 80° ENE 20:21:50 10° SSE
FREGAT/IRIS 4.3 20:17:06 10° SSW 20:19:55 36° W 20:22:46 10° NNW
Cosmos 2228 4.5 20:16:33 10° SSW 20:20:39 40° WNW 20:24:45 10° N
Cosmos 1356 3.4 20:18:38 10° N 20:22:07 62° ENE 20:23:36 31° SSE
Envisat 3.2 20:21:01 21° SE 20:24:06 48° ENE 20:28:59 10° N
Cosmos 1544 3.3 20:22:33 10° SSW 20:26:08 71° W 20:29:45 10° N
Cosmos 2341 Rocket 4.2 20:22:21 10° SSE 20:28:12 46° E 20:34:06 10° NNE
ATLAS 2AS CENTAUR R/B 3.6 20:25:13 10° NNW 20:32:48 42° NE 20:36:22 27° E
Cosmos 1900 4.3 20:27:53 10° SSW 20:32:54 66° ESE 20:38:03 10° NE
COSMOS 2406 3.6 20:28:32 10° SW 20:34:12 66° WNW 20:39:57 10° NNE
Cosmos 1766 4.5 20:34:09 10° SSW 20:37:54 44° WNW 20:41:40 10° N
Cosmos 1812 Rocket 3.6 20:34:21 10° S 20:38:48 82° W 20:43:18 10° N
Resurs 01 Rocket 1.5 20:38:07 23° SSE 20:40:50 87° ENE 20:45:16 10° NNW
Cosmos 1674 2.5 20:38:09 10° N 20:41:52 62° E 20:41:52 62° E
GP-B 3.0 20:37:30 10° N 20:41:58 85° E 20:46:08 12° S
Nadezhda 3 Rocket 3.9 20:37:33 10° N 20:43:54 85° E 20:50:08 10° S
MOS 1-B Rocket 3.8 20:40:08 16° SSE 20:45:10 80° ENE 20:50:49 10° NNW
Cosmos 2369 4.0 20:39:51 10° NNW 20:45:20 49° ENE 20:46:39 41° E
H-2A R/B 4.2 20:47:35 11° NE 20:47:35 11° NE 20:48:06 10° NE
SL-27 R/B 2.7 20:47:59 10° SSW 20:51:34 70° WNW 20:55:14 10° NNE
Cosmos 2218 Rocket 4.5 20:53:56 38° E 20:53:56 38° E 20:59:13 10° NNE
Cosmos 540 Rocket 4.4 20:48:47 10° SW 20:53:42 48° WNW 20:58:40 10° N
Meteor 1-21 Rocket 4.1 20:48:39 10° N 20:54:25 80° E 20:57:04 33° SSE
Cosmos 2285 Rocket 4.1 20:49:35 10° S 20:55:47 53° ESE 21:02:02 10° NNE
Cosmos 1758 3.5 20:53:43 10° SSW 20:57:43 69° W 21:01:43 10° N
Helios 1A 4.5 21:00:24 25° NNE 21:00:24 25° NNE 21:02:31 10° N
USA 186 4.4 21:02:05 11° NNW 21:02:05 11° NNW 21:02:13 10° NNW
Cosmos 1295 Rocket 4.3 20:58:36 10° S 21:04:41 77° E 21:10:47 10° N
Cosmos 1809 Rocket 4.3 21:03:38 32° SSE 21:06:35 67° E 21:12:38 10° NNE
Okean 3 Rocket 3.5 21:03:27 10° N 21:07:57 85° W 21:08:04 83° SW
Cosmos 1939 Rocket 3.4 21:13:42 53° NNW 21:13:42 53° NNW 21:16:48 10° NNW
SL-8 Rocket 3.8 21:14:56 58° SE 21:15:59 69° E 21:22:06 10° NNE
Cosmos 292 Rocket 4.3 21:12:42 10° SSW 21:17:29 59° WNW 21:22:20 10° NNE
Cosmos 1727 Rocket 4.4 21:12:53 10° N 21:18:13 44° ENE 21:18:13 44° ENE
Cosmos 2278 3.5 21:13:55 10° NNW 21:19:38 86° ENE 21:20:04 77° SE
Meteor 2-15 4.3 21:15:47 10° N 21:21:54 83° E 21:22:46 67° SSE
Meteor 2-14 Rocket 4.3 21:27:37 70° ENE 21:27:37 70° ENE 21:33:23 10° NNE
Cosmos 2322 Rocket 4.2 21:27:27 10° N 21:29:40 15° NNE 21:29:40 15° NNE
ISS -0.8 21:29:42 10° WSW 21:30:17 14° W 21:30:17 14° W
Milstar 3 Cent rocket 4.3 21:30:21 10° SW 21:30:40 11° SSW 21:30:40 11° SSW
Meteor 2-21 Rocket 4.3 21:33:18 83° ESE 21:33:22 83° E 21:39:33 10° N
Cosmos 1656 3.7 21:30:26 10° NNW 21:35:48 79° NW 21:35:48 79° NW
Cosmos 1697 Rocket 3.0 21:33:48 10° NNW 21:38:32 59° N 21:38:32 59° N
Cosmos 1980 Rocket 3.2 21:35:57 10° NNW 21:39:51 37° NNE 21:39:51 37° NNE
SJ 16-02 3.7 21:41:53 10° NW 21:44:57 19° W 21:46:14 17° WSW
ERS-1 Rocket 4.2 21:52:11 36° N 21:52:11 36° N 21:55:07 10° N
ARGOS 4.3 22:05:24 37° N 22:05:24 37° N 22:08:35 10° NNW
SL-16 R/B 4.1 22:04:43 10° N 22:07:07 21° NNE 22:07:07 21° NNE
FALCON 9 R/B 4.4 22:14:45 10° WSW 22:15:43 17° WSW 22:15:43 17° WSW
ATLAS 2AS CENTAUR R/B 3.3 22:16:24 10° NW 22:23:48 56° WSW 22:23:48 56° WSW
H-2A R/B 4.1 22:28:14 21° NNW 22:28:14 21° NNW 22:29:55 10° NNW
